Grosseto Airport LIRS

Flugplatz Daten

Name: Grosseto Airport

Ident: LIRS

Lat: 42,75970078

Long: 11,07190037

Platzhöhe: 17 ft

IataCode: GRS

City: Grosetto

Metar

2021/12/03 22:55
LIRS 032255Z 36004KT CAVOK 05/02 Q1014

Taf

2018/06/29 09:24
TAF TAF LIRS 290800Z 2909/2921 VRB03KT 9999 FEW030
BECMG 2911/2913 24015KT
Gewünschte Webcam nicht vorhanden? Dann fügen Sie eine hinzu. Sie wird dann so schnell wie möglich freigeschaltet
Url: Title: